owner,sensor,date,latitude,longitude,vertical_datum,wind_speed,wind_to_direction,wind_speed_of_gust,qcFlag 
WAVCIS,ioos:station:WAVCIS:CSI03:3,2009-04-01T00:00:00Z,29.4412,-92.0613,10.0,6.519,354.0,,'11111222,11111222,99999999' 
WAVCIS,ioos:station:WAVCIS:CSI03:3,2009-04-01T01:00:00Z,29.4412,-92.0613,10.0,4.557,4.0,,'11111222,11111222,99999999' 
WAVCIS,ioos:station:WAVCIS:CSI03:3,2009-04-01T02:00:00Z,29.4412,-92.0613,10.0,3.694,4.0,,'11111222,11111222,99999999' 
WAVCIS,ioos:station:WAVCIS:CSI03:3,2009-04-01T03:00:00Z,29.4412,-92.0613,10.0,5.679,3.0,,'11111222,11111222,99999999' 
WAVCIS,ioos:station:WAVCIS:CSI03:3,2009-04-01T04:00:00Z,29.4412,-92.0613,10.0,5.628,5.0,,'11111222,11111222,99999999' 
WAVCIS,ioos:station:WAVCIS:CSI03:3,2009-04-01T05:00:00Z,29.4412,-92.0613,10.0,7.68,10.0,,'11111222,11111222,99999999' 
WAVCIS,ioos:station:WAVCIS:CSI03:3,2009-04-01T06:00:00Z,29.4412,-92.0613,10.0,7.29,11.0,,'11111222,11111222,99999999' 
WAVCIS,ioos:station:WAVCIS:CSI03:3,2009-04-01T07:00:00Z,29.4412,-92.0613,10.0,8.63,15.0,,'11111222,11111222,99999999' 
WAVCIS,ioos:station:WAVCIS:CSI03:3,2009-04-01T08:00:00Z,29.4412,-92.0613,10.0,7.85,22.0,,'11111222,11111222,99999999' 
WAVCIS,ioos:station:WAVCIS:CSI03:3,2009-04-01T09:00:00Z,29.4412,-92.0613,10.0,0.0,37.0,,'11111222,11111222,99999999' 
WAVCIS,ioos:station:WAVCIS:CSI03:3,2009-04-01T10:00:00Z,29.4412,-92.0613,10.0,0.001,20.0,,'11111222,11111222,99999999' 
WAVCIS,ioos:station:WAVCIS:CSI03:3,2009-04-01T11:00:00Z,29.4412,-92.0613,10.0,0.0,35.0,,'11111222,11111222,99999999' 
WAVCIS,ioos:station:WAVCIS:CSI03:3,2009-04-01T12:00:00Z,29.4412,-92.0613,10.0,0.0,50.0,,'11111222,11111222,99999999' 
WAVCIS,ioos:station:WAVCIS:CSI03:3,2009-04-01T13:00:00Z,29.4412,-92.0613,10.0,0.0,0.0,,'11111222,11111222,99999999' 
WAVCIS,ioos:station:WAVCIS:CSI03:3,2009-04-01T14:00:00Z,29.4412,-92.0613,10.0,0.0,0.0,,'11111222,11111222,99999999' 
WAVCIS,ioos:station:WAVCIS:CSI03:3,2009-04-01T15:00:00Z,29.4412,-92.0613,10.0,0.0,0.0,,'11111222,11111222,99999999' 
WAVCIS,ioos:station:WAVCIS:CSI03:3,2009-04-01T16:00:00Z,29.4412,-92.0613,10.0,0.0,0.0,,'11111222,11111222,99999999' 
WAVCIS,ioos:station:WAVCIS:CSI03:3,2009-04-01T17:00:00Z,29.4412,-92.0613,10.0,0.0,0.0,,'11111222,11111222,99999999' 
WAVCIS,ioos:station:WAVCIS:CSI03:3,2009-04-01T18:00:00Z,29.4412,-92.0613,10.0,0.0,0.0,,'11111222,11111222,99999999' 
WAVCIS,ioos:station:WAVCIS:CSI03:3,2009-04-01T19:00:00Z,29.4412,-92.0613,10.0,0.0,0.0,,'11111222,11111222,99999999' 
WAVCIS,ioos:station:WAVCIS:CSI03:3,2009-04-01T20:00:00Z,29.4412,-92.0613,10.0,0.0,0.0,,'11111222,11111222,99999999' 
WAVCIS,ioos:station:WAVCIS:CSI03:3,2009-04-01T21:00:00Z,29.4412,-92.0613,10.0,0.0,0.0,,'11111222,11111222,99999999' 
WAVCIS,ioos:station:WAVCIS:CSI03:3,2009-04-01T22:00:00Z,29.4412,-92.0613,10.0,0.0,0.0,,'11111222,11111222,99999999' 
WAVCIS,ioos:station:WAVCIS:CSI03:3,2009-04-01T23:00:00Z,29.4412,-92.0613,10.0,0.098,121.0,,'11111222,11111222,99999999' 
WAVCIS,ioos:station:WAVCIS:CSI03:3,2009-04-02T00:00:00Z,29.4412,-92.0613,10.0,0.195,137.0,,'11111222,11111222,99999999' 
WAVCIS,ioos:station:WAVCIS:CSI03:3,2009-04-02T01:00:00Z,29.4412,-92.0613,10.0,0.196,112.0,,'11111222,11111222,99999999' 
WAVCIS,ioos:station:WAVCIS:CSI03:3,2009-04-02T02:00:00Z,29.4412,-92.0613,10.0,0.196,111.0,,'11111222,11111222,99999999' 
WAVCIS,ioos:station:WAVCIS:CSI03:3,2009-04-02T03:00:00Z,29.4412,-92.0613,10.0,0.196,107.0,,'11111222,11111222,99999999' 
WAVCIS,ioos:station:WAVCIS:CSI03:3,2009-04-02T04:00:00Z,29.4412,-92.0613,10.0,0.196,106.0,,'11111222,11111222,99999999' 
WAVCIS,ioos:station:WAVCIS:CSI03:3,2009-04-02T05:00:00Z,29.4412,-92.0613,10.0,0.196,112.0,,'11111222,11111222,99999999' 
WAVCIS,ioos:station:WAVCIS:CSI03:3,2009-04-02T06:00:00Z,29.4412,-92.0613,10.0,0.196,143.0,,'11111222,11111222,99999999' 
WAVCIS,ioos:station:WAVCIS:CSI03:3,2009-04-02T07:00:00Z,29.4412,-92.0613,10.0,0.196,152.0,,'11111222,11111222,99999999' 
WAVCIS,ioos:station:WAVCIS:CSI03:3,2009-04-02T08:00:00Z,29.4412,-92.0613,10.0,0.196,175.0,,'11111222,11111222,99999999' 
WAVCIS,ioos:station:WAVCIS:CSI03:3,2009-04-02T09:00:00Z,29.4412,-92.0613,10.0,0.196,162.0,,'11111222,11111222,99999999' 
WAVCIS,ioos:station:WAVCIS:CSI03:3,2009-04-02T10:00:00Z,29.4412,-92.0613,10.0,0.196,167.0,,'11111222,11111222,99999999' 
WAVCIS,ioos:station:WAVCIS:CSI03:3,2009-04-02T11:00:00Z,29.4412,-92.0613,10.0,0.196,168.0,,'11111222,11111222,99999999' 
WAVCIS,ioos:station:WAVCIS:CSI03:3,2009-04-02T12:00:00Z,29.4412,-92.0613,10.0,0.196,176.0,,'11111222,11111222,99999999' 
WAVCIS,ioos:station:WAVCIS:CSI03:3,2009-04-02T13:00:00Z,29.4412,-92.0613,10.0,0.196,191.0,,'11111222,11111222,99999999' 
WAVCIS,ioos:station:WAVCIS:CSI03:3,2009-04-02T14:00:00Z,29.4412,-92.0613,10.0,0.196,169.0,,'11111222,11111222,99999999' 
WAVCIS,ioos:station:WAVCIS:CSI03:3,2009-04-02T15:00:00Z,29.4412,-92.0613,10.0,0.196,176.0,,'11111222,11111222,99999999' 
WAVCIS,ioos:station:WAVCIS:CSI03:3,2009-04-02T16:00:00Z,29.4412,-92.0613,10.0,0.196,288.0,,'11111222,11111222,99999999' 
WAVCIS,ioos:station:WAVCIS:CSI03:3,2009-04-02T17:00:00Z,29.4412,-92.0613,10.0,0.196,352.0,,'11111222,11111222,99999999' 
WAVCIS,ioos:station:WAVCIS:CSI03:3,2009-04-02T18:00:00Z,29.4412,-92.0613,10.0,0.196,352.0,,'11111222,11111222,99999999' 
WAVCIS,ioos:station:WAVCIS:CSI03:3,2009-04-02T19:00:00Z,29.4412,-92.0613,10.0,0.196,314.0,,'11111222,11111222,99999999' 
WAVCIS,ioos:station:WAVCIS:CSI03:3,2009-04-02T20:00:00Z,29.4412,-92.0613,10.0,0.196,258.0,,'11111222,11111222,99999999' 
WAVCIS,ioos:station:WAVCIS:CSI03:3,2009-04-02T21:00:00Z,29.4412,-92.0613,10.0,0.196,263.0,,'11111222,11111222,99999999' 
WAVCIS,ioos:station:WAVCIS:CSI03:3,2009-04-02T22:00:00Z,29.4412,-92.0613,10.0,0.196,275.0,,'11111222,11111222,99999999' 
WAVCIS,ioos:station:WAVCIS:CSI03:3,2009-04-02T23:00:00Z,29.4412,-92.0613,10.0,0.093,283.0,,'11111222,11111222,99999999' 
WAVCIS,ioos:station:WAVCIS:CSI03:3,2009-04-03T00:00:00Z,29.4412,-92.0613,10.0,0.092,287.0,,'11111222,11111222,99999999' 
WAVCIS,ioos:station:WAVCIS:CSI03:3,2009-04-03T01:00:00Z,29.4412,-92.0613,10.0,0.097,292.0,,'11111222,11111222,99999999' 
WAVCIS,ioos:station:WAVCIS:CSI03:3,2009-04-03T02:00:00Z,29.4412,-92.0613,10.0,0.097,309.0,,'11111222,11111222,99999999' 
WAVCIS,ioos:station:WAVCIS:CSI03:3,2009-04-03T03:00:00Z,29.4412,-92.0613,10.0,0.085,318.0,,'11111222,11111222,99999999' 
WAVCIS,ioos:station:WAVCIS:CSI03:3,2009-04-03T04:00:00Z,29.4412,-92.0613,10.0,0.083,318.0,,'11111222,11111222,99999999' 
WAVCIS,ioos:station:WAVCIS:CSI03:3,2009-04-03T05:00:00Z,29.4412,-92.0613,10.0,0.063,321.0,,'11111222,11111222,99999999' 
WAVCIS,ioos:station:WAVCIS:CSI03:3,2009-04-03T06:00:00Z,29.4412,-92.0613,10.0,0.061,319.0,,'11111222,11111222,99999999' 
WAVCIS,ioos:station:WAVCIS:CSI03:3,2009-04-03T07:00:00Z,29.4412,-92.0613,10.0,0.082,319.0,,'11111222,11111222,99999999' 
WAVCIS,ioos:station:WAVCIS:CSI03:3,2009-04-03T08:00:00Z,29.4412,-92.0613,10.0,0.091,318.0,,'11111222,11111222,99999999' 
WAVCIS,ioos:station:WAVCIS:CSI03:3,2009-04-03T09:00:00Z,29.4412,-92.0613,10.0,0.082,322.0,,'11111222,11111222,99999999' 
WAVCIS,ioos:station:WAVCIS:CSI03:3,2009-04-03T10:00:00Z,29.4412,-92.0613,10.0,0.075,337.0,,'11111222,11111222,99999999' 
WAVCIS,ioos:station:WAVCIS:CSI03:3,2009-04-03T11:00:00Z,29.4412,-92.0613,10.0,0.07,350.0,,'11111222,11111222,99999999' 
WAVCIS,ioos:station:WAVCIS:CSI03:3,2009-04-03T12:00:00Z,29.4412,-92.0613,10.0,0.045,358.0,,'11111222,11111222,99999999' 
WAVCIS,ioos:station:WAVCIS:CSI03:3,2009-04-03T13:00:00Z,29.4412,-92.0613,10.0,0.003,5.0,,'11111222,11111222,99999999' 
WAVCIS,ioos:station:WAVCIS:CSI03:3,2009-04-03T14:00:00Z,29.4412,-92.0613,10.0,0.001,4.0,,'11111222,11111222,99999999' 
WAVCIS,ioos:station:WAVCIS:CSI03:3,2009-04-03T15:00:00Z,29.4412,-92.0613,10.0,0.0,0.0,,'11111222,11111222,99999999' 
WAVCIS,ioos:station:WAVCIS:CSI03:3,2009-04-03T16:00:00Z,29.4412,-92.0613,10.0,0.0,0.0,,'11111222,11111222,99999999' 
WAVCIS,ioos:station:WAVCIS:CSI03:3,2009-04-03T17:00:00Z,29.4412,-92.0613,10.0,0.0,26.0,,'11111222,11111222,99999999' 
WAVCIS,ioos:station:WAVCIS:CSI03:3,2009-04-03T18:00:00Z,29.4412,-92.0613,10.0,0.003,0.0,,'11111222,11111222,99999999' 
WAVCIS,ioos:station:WAVCIS:CSI03:3,2009-04-03T19:00:00Z,29.4412,-92.0613,10.0,0.03,290.0,,'11111222,11111222,99999999' 
WAVCIS,ioos:station:WAVCIS:CSI03:3,2009-04-03T20:00:00Z,29.4412,-92.0613,10.0,0.0,203.0,,'11111222,11111222,99999999' 
WAVCIS,ioos:station:WAVCIS:CSI03:3,2009-04-03T21:00:00Z,29.4412,-92.0613,10.0,0.0,264.0,,'11111222,11111222,99999999' 
WAVCIS,ioos:station:WAVCIS:CSI03:3,2009-04-03T22:00:00Z,29.4412,-92.0613,10.0,0.0,266.0,,'11111222,11111222,99999999' 
WAVCIS,ioos:station:WAVCIS:CSI03:3,2009-04-03T23:00:00Z,29.4412,-92.0613,10.0,0.0,258.0,,'11111222,11111222,99999999' 
WAVCIS,ioos:station:WAVCIS:CSI03:3,2009-04-04T00:00:00Z,29.4412,-92.0613,10.0,0.0,271.0,,'11111222,11111222,99999999' 
WAVCIS,ioos:station:WAVCIS:CSI03:3,2009-04-04T01:00:00Z,29.4412,-92.0613,10.0,0.0,258.0,,'11111222,11111222,99999999' 
WAVCIS,ioos:station:WAVCIS:CSI03:3,2009-04-04T02:00:00Z,29.4412,-92.0613,10.0,0.0,257.0,,'11111222,11111222,99999999' 
WAVCIS,ioos:station:WAVCIS:CSI03:3,2009-04-04T03:00:00Z,29.4412,-92.0613,10.0,0.0,256.0,,'11111222,11111222,99999999' 
WAVCIS,ioos:station:WAVCIS:CSI03:3,2009-04-04T04:00:00Z,29.4412,-92.0613,10.0,0.043,254.0,,'11111222,11111222,99999999' 
WAVCIS,ioos:station:WAVCIS:CSI03:3,2009-04-04T05:00:00Z,29.4412,-92.0613,10.0,0.0,139.0,,'11111222,11111222,99999999' 
WAVCIS,ioos:station:WAVCIS:CSI03:3,2009-04-04T06:00:00Z,29.4412,-92.0613,10.0,0.098,177.0,,'11111222,11111222,99999999' 
WAVCIS,ioos:station:WAVCIS:CSI03:3,2009-04-04T07:00:00Z,29.4412,-92.0613,10.0,0.0,152.0,,'11111222,11111222,99999999' 
WAVCIS,ioos:station:WAVCIS:CSI03:3,2009-04-04T08:00:00Z,29.4412,-92.0613,10.0,0.079,154.0,,'11111222,11111222,99999999' 
WAVCIS,ioos:station:WAVCIS:CSI03:3,2009-04-04T09:00:00Z,29.4412,-92.0613,10.0,0.098,157.0,,'11111222,11111222,99999999' 
WAVCIS,ioos:station:WAVCIS:CSI03:3,2009-04-04T10:00:00Z,29.4412,-92.0613,10.0,0.098,157.0,,'11111222,11111222,99999999' 
WAVCIS,ioos:station:WAVCIS:CSI03:3,2009-04-04T11:00:00Z,29.4412,-92.0613,10.0,0.098,159.0,,'11111222,11111222,99999999' 
WAVCIS,ioos:station:WAVCIS:CSI03:3,2009-04-04T12:00:00Z,29.4412,-92.0613,10.0,0.098,158.0,,'11111222,11111222,99999999' 
WAVCIS,ioos:station:WAVCIS:CSI03:3,2009-04-04T13:00:00Z,29.4412,-92.0613,10.0,0.098,142.0,,'11111222,11111222,99999999' 
WAVCIS,ioos:station:WAVCIS:CSI03:3,2009-04-04T14:00:00Z,29.4412,-92.0613,10.0,0.098,136.0,,'11111222,11111222,99999999' 
WAVCIS,ioos:station:WAVCIS:CSI03:3,2009-04-04T15:00:00Z,29.4412,-92.0613,10.0,0.098,133.0,,'11111222,11111222,99999999' 
WAVCIS,ioos:station:WAVCIS:CSI03:3,2009-04-04T16:00:00Z,29.4412,-92.0613,10.0,0.098,137.0,,'11111222,11111222,99999999' 
WAVCIS,ioos:station:WAVCIS:CSI03:3,2009-04-04T17:00:00Z,29.4412,-92.0613,10.0,0.098,130.0,,'11111222,11111222,99999999' 
WAVCIS,ioos:station:WAVCIS:CSI03:3,2009-04-04T18:00:00Z,29.4412,-92.0613,10.0,0.098,130.0,,'11111222,11111222,99999999' 
WAVCIS,ioos:station:WAVCIS:CSI03:3,2009-04-04T19:00:00Z,29.4412,-92.0613,10.0,0.098,126.0,,'11111222,11111222,99999999' 
WAVCIS,ioos:station:WAVCIS:CSI03:3,2009-04-04T20:00:00Z,29.4412,-92.0613,10.0,0.098,134.0,,'11111222,11111222,99999999' 
WAVCIS,ioos:station:WAVCIS:CSI03:3,2009-04-04T21:00:00Z,29.4412,-92.0613,10.0,0.098,125.0,,'11111222,11111222,99999999' 
WAVCIS,ioos:station:WAVCIS:CSI03:3,2009-04-04T22:00:00Z,29.4412,-92.0613,10.0,0.136,118.0,,'11111222,11111222,99999999' 
WAVCIS,ioos:station:WAVCIS:CSI03:3,2009-04-04T23:00:00Z,29.4412,-92.0613,10.0,0.196,126.0,,'11111222,11111222,99999999' 
WAVCIS,ioos:station:WAVCIS:CSI03:3,2009-04-05T00:00:00Z,29.4412,-92.0613,10.0,0.196,125.0,,'11111222,11111222,99999999' 
WAVCIS,ioos:station:WAVCIS:CSI03:3,2009-04-05T01:00:00Z,29.4412,-92.0613,10.0,0.196,126.0,,'11111222,11111222,99999999' 
WAVCIS,ioos:station:WAVCIS:CSI03:3,2009-04-05T02:00:00Z,29.4412,-92.0613,10.0,0.196,126.0,,'11111222,11111222,99999999' 
WAVCIS,ioos:station:WAVCIS:CSI03:3,2009-04-05T03:00:00Z,29.4412,-92.0613,10.0,0.196,124.0,,'11111222,11111222,99999999' 
WAVCIS,ioos:station:WAVCIS:CSI03:3,2009-04-05T04:00:00Z,29.4412,-92.0613,10.0,0.196,133.0,,'11111222,11111222,99999999' 
WAVCIS,ioos:station:WAVCIS:CSI03:3,2009-04-05T05:00:00Z,29.4412,-92.0613,10.0,0.196,134.0,,'11111222,11111222,99999999' 
WAVCIS,ioos:station:WAVCIS:CSI03:3,2009-04-05T06:00:00Z,29.4412,-92.0613,10.0,0.196,137.0,,'11111222,11111222,99999999' 
WAVCIS,ioos:station:WAVCIS:CSI03:3,2009-04-05T07:00:00Z,29.4412,-92.0613,10.0,0.196,137.0,,'11111222,11111222,99999999' 
WAVCIS,ioos:station:WAVCIS:CSI03:3,2009-04-05T08:00:00Z,29.4412,-92.0613,10.0,0.196,156.0,,'11111222,11111222,99999999' 
WAVCIS,ioos:station:WAVCIS:CSI03:3,2009-04-05T09:00:00Z,29.4412,-92.0613,10.0,0.196,193.0,,'11111222,11111222,99999999' 
WAVCIS,ioos:station:WAVCIS:CSI03:3,2009-04-05T10:00:00Z,29.4412,-92.0613,10.0,0.196,223.0,,'11111222,11111222,99999999' 
WAVCIS,ioos:station:WAVCIS:CSI03:3,2009-04-05T11:00:00Z,29.4412,-92.0613,10.0,0.196,253.0,,'11111222,11111222,99999999' 
WAVCIS,ioos:station:WAVCIS:CSI03:3,2009-04-05T12:00:00Z,29.4412,-92.0613,10.0,0.196,191.0,,'11111222,11111222,99999999' 
WAVCIS,ioos:station:WAVCIS:CSI03:3,2009-04-05T13:00:00Z,29.4412,-92.0613,10.0,0.196,190.0,,'11111222,11111222,99999999' 
WAVCIS,ioos:station:WAVCIS:CSI03:3,2009-04-05T14:00:00Z,29.4412,-92.0613,10.0,0.196,260.0,,'11111222,11111222,99999999' 
WAVCIS,ioos:station:WAVCIS:CSI03:3,2009-04-05T15:00:00Z,29.4412,-92.0613,10.0,0.196,266.0,,'11111222,11111222,99999999' 
WAVCIS,ioos:station:WAVCIS:CSI03:3,2009-04-05T16:00:00Z,29.4412,-92.0613,10.0,0.196,266.0,,'11111222,11111222,99999999' 
WAVCIS,ioos:station:WAVCIS:CSI03:3,2009-04-05T17:00:00Z,29.4412,-92.0613,10.0,0.196,268.0,,'11111222,11111222,99999999' 
WAVCIS,ioos:station:WAVCIS:CSI03:3,2009-04-05T18:00:00Z,29.4412,-92.0613,10.0,0.196,280.0,,'11111222,11111222,99999999' 
WAVCIS,ioos:station:WAVCIS:CSI03:3,2009-04-05T19:00:00Z,29.4412,-92.0613,10.0,0.196,271.0,,'11111222,11111222,99999999' 
WAVCIS,ioos:station:WAVCIS:CSI03:3,2009-04-05T20:00:00Z,29.4412,-92.0613,10.0,0.196,267.0,,'11111222,11111222,99999999' 
WAVCIS,ioos:station:WAVCIS:CSI03:3,2009-04-05T21:00:00Z,29.4412,-92.0613,10.0,0.196,254.0,,'11111222,11111222,99999999' 
WAVCIS,ioos:station:WAVCIS:CSI03:3,2009-04-05T22:00:00Z,29.4412,-92.0613,10.0,0.196,249.0,,'11111222,11111222,99999999' 
WAVCIS,ioos:station:WAVCIS:CSI03:3,2009-04-05T23:00:00Z,29.4412,-92.0613,10.0,0.196,259.0,,'11111222,11111222,99999999' 
WAVCIS,ioos:station:WAVCIS:CSI03:3,2009-04-06T00:00:00Z,29.4412,-92.0613,10.0,0.18,346.0,,'11111222,11111222,99999999' 
WAVCIS,ioos:station:WAVCIS:CSI03:3,2009-04-06T01:00:00Z,29.4412,-92.0613,10.0,0.085,341.0,,'11111222,11111222,99999999' 
WAVCIS,ioos:station:WAVCIS:CSI03:3,2009-04-06T02:00:00Z,29.4412,-92.0613,10.0,0.072,347.0,,'11111222,11111222,99999999' 
WAVCIS,ioos:station:WAVCIS:CSI03:3,2009-04-06T03:00:00Z,29.4412,-92.0613,10.0,0.058,338.0,,'11111222,11111222,99999999' 
WAVCIS,ioos:station:WAVCIS:CSI03:3,2009-04-06T04:00:00Z,29.4412,-92.0613,10.0,0.058,331.0,,'11111222,11111222,99999999' 
WAVCIS,ioos:station:WAVCIS:CSI03:3,2009-04-06T05:00:00Z,29.4412,-92.0613,10.0,0.047,335.0,,'11111222,11111222,99999999' 
WAVCIS,ioos:station:WAVCIS:CSI03:3,2009-04-06T06:00:00Z,29.4412,-92.0613,10.0,0.047,336.0,,'11111222,11111222,99999999' 
WAVCIS,ioos:station:WAVCIS:CSI03:3,2009-04-06T07:00:00Z,29.4412,-92.0613,10.0,0.039,346.0,,'11111222,11111222,99999999' 
WAVCIS,ioos:station:WAVCIS:CSI03:3,2009-04-06T08:00:00Z,29.4412,-92.0613,10.0,0.039,344.0,,'11111222,11111222,99999999' 
WAVCIS,ioos:station:WAVCIS:CSI03:3,2009-04-06T09:00:00Z,29.4412,-92.0613,10.0,0.028,349.0,,'11111222,11111222,99999999' 
WAVCIS,ioos:station:WAVCIS:CSI03:3,2009-04-06T10:00:00Z,29.4412,-92.0613,10.0,0.022,354.0,,'11111222,11111222,99999999' 
WAVCIS,ioos:station:WAVCIS:CSI03:3,2009-04-06T11:00:00Z,29.4412,-92.0613,10.0,0.016,353.0,,'11111222,11111222,99999999' 
WAVCIS,ioos:station:WAVCIS:CSI03:3,2009-04-06T12:00:00Z,29.4412,-92.0613,10.0,0.02,350.0,,'11111222,11111222,99999999' 
WAVCIS,ioos:station:WAVCIS:CSI03:3,2009-04-06T13:00:00Z,29.4412,-92.0613,10.0,0.025,346.0,,'11111222,11111222,99999999' 
WAVCIS,ioos:station:WAVCIS:CSI03:3,2009-04-06T14:00:00Z,29.4412,-92.0613,10.0,0.028,348.0,,'11111222,11111222,99999999' 
WAVCIS,ioos:station:WAVCIS:CSI03:3,2009-04-06T15:00:00Z,29.4412,-92.0613,10.0,0.035,348.0,,'11111222,11111222,99999999' 
WAVCIS,ioos:station:WAVCIS:CSI03:3,2009-04-06T16:00:00Z,29.4412,-92.0613,10.0,0.034,348.0,,'11111222,11111222,99999999' 
WAVCIS,ioos:station:WAVCIS:CSI03:3,2009-04-06T17:00:00Z,29.4412,-92.0613,10.0,0.039,341.0,,'11111222,11111222,99999999' 
WAVCIS,ioos:station:WAVCIS:CSI03:3,2009-04-06T18:00:00Z,29.4412,-92.0613,10.0,0.029,325.0,,'11111222,11111222,99999999' 
WAVCIS,ioos:station:WAVCIS:CSI03:3,2009-04-06T19:00:00Z,29.4412,-92.0613,10.0,0.046,335.0,,'11111222,11111222,99999999' 
WAVCIS,ioos:station:WAVCIS:CSI03:3,2009-04-06T20:00:00Z,29.4412,-92.0613,10.0,0.05,325.0,,'11111222,11111222,99999999' 
WAVCIS,ioos:station:WAVCIS:CSI03:3,2009-04-06T21:00:00Z,29.4412,-92.0613,10.0,0.041,323.0,,'11111222,11111222,99999999' 
WAVCIS,ioos:station:WAVCIS:CSI03:3,2009-04-06T22:00:00Z,29.4412,-92.0613,10.0,0.044,325.0,,'11111222,11111222,99999999' 
WAVCIS,ioos:station:WAVCIS:CSI03:3,2009-04-06T23:00:00Z,29.4412,-92.0613,10.0,0.036,325.0,,'11111222,11111222,99999999' 
WAVCIS,ioos:station:WAVCIS:CSI03:3,2009-04-07T00:00:00Z,29.4412,-92.0613,10.0,0.043,339.0,,'11111222,11111222,99999999' 
WAVCIS,ioos:station:WAVCIS:CSI03:3,2009-04-07T01:00:00Z,29.4412,-92.0613,10.0,0.035,344.0,,'11111222,11111222,99999999' 
WAVCIS,ioos:station:WAVCIS:CSI03:3,2009-04-07T02:00:00Z,29.4412,-92.0613,10.0,0.026,335.0,,'11111222,11111222,99999999' 
WAVCIS,ioos:station:WAVCIS:CSI03:3,2009-04-07T03:00:00Z,29.4412,-92.0613,10.0,0.034,335.0,,'11111222,11111222,99999999' 
WAVCIS,ioos:station:WAVCIS:CSI03:3,2009-04-07T04:00:00Z,29.4412,-92.0613,10.0,0.027,333.0,,'11111222,11111222,99999999' 
WAVCIS,ioos:station:WAVCIS:CSI03:3,2009-04-07T05:00:00Z,29.4412,-92.0613,10.0,0.025,330.0,,'11111222,11111222,99999999' 
WAVCIS,ioos:station:WAVCIS:CSI03:3,2009-04-07T06:00:00Z,29.4412,-92.0613,10.0,0.025,334.0,,'11111222,11111222,99999999' 
WAVCIS,ioos:station:WAVCIS:CSI03:3,2009-04-07T07:00:00Z,29.4412,-92.0613,10.0,0.02,330.0,,'11111222,11111222,99999999' 
WAVCIS,ioos:station:WAVCIS:CSI03:3,2009-04-07T08:00:00Z,29.4412,-92.0613,10.0,0.023,341.0,,'11111222,11111222,99999999' 
WAVCIS,ioos:station:WAVCIS:CSI03:3,2009-04-07T09:00:00Z,29.4412,-92.0613,10.0,0.021,340.0,,'11111222,11111222,99999999' 
WAVCIS,ioos:station:WAVCIS:CSI03:3,2009-04-07T10:00:00Z,29.4412,-92.0613,10.0,0.021,345.0,,'11111222,11111222,99999999' 
WAVCIS,ioos:station:WAVCIS:CSI03:3,2009-04-07T11:00:00Z,29.4412,-92.0613,10.0,0.004,1.0,,'11111222,11111222,99999999' 
WAVCIS,ioos:station:WAVCIS:CSI03:3,2009-04-07T12:00:00Z,29.4412,-92.0613,10.0,0.005,349.0,,'11111222,11111222,99999999' 
WAVCIS,ioos:station:WAVCIS:CSI03:3,2009-04-07T13:00:00Z,29.4412,-92.0613,10.0,0.013,352.0,,'11111222,11111222,99999999' 
WAVCIS,ioos:station:WAVCIS:CSI03:3,2009-04-07T14:00:00Z,29.4412,-92.0613,10.0,0.015,349.0,,'11111222,11111222,99999999' 
WAVCIS,ioos:station:WAVCIS:CSI03:3,2009-04-07T15:00:00Z,29.4412,-92.0613,10.0,0.025,348.0,,'11111222,11111222,99999999' 
WAVCIS,ioos:station:WAVCIS:CSI03:3,2009-04-07T16:00:00Z,29.4412,-92.0613,10.0,0.019,356.0,,'11111222,11111222,99999999' 
WAVCIS,ioos:station:WAVCIS:CSI03:3,2009-04-07T17:00:00Z,29.4412,-92.0613,10.0,0.04,345.0,,'11111222,11111222,99999999' 
WAVCIS,ioos:station:WAVCIS:CSI03:3,2009-04-07T18:00:00Z,29.4412,-92.0613,10.0,0.022,336.0,,'11111222,11111222,99999999' 
WAVCIS,ioos:station:WAVCIS:CSI03:3,2009-04-07T19:00:00Z,29.4412,-92.0613,10.0,0.007,318.0,,'11111222,11111222,99999999' 
WAVCIS,ioos:station:WAVCIS:CSI03:3,2009-04-07T20:00:00Z,29.4412,-92.0613,10.0,0.005,313.0,,'11111222,11111222,99999999' 
WAVCIS,ioos:station:WAVCIS:CSI03:3,2009-04-07T21:00:00Z,29.4412,-92.0613,10.0,0.023,324.0,,'11111222,11111222,99999999' 
WAVCIS,ioos:station:WAVCIS:CSI03:3,2009-04-07T22:00:00Z,29.4412,-92.0613,10.0,0.008,321.0,,'11111222,11111222,99999999' 
WAVCIS,ioos:station:WAVCIS:CSI03:3,2009-04-07T23:00:00Z,29.4412,-92.0613,10.0,0.0,308.0,,'11111222,11111222,99999999' 
WAVCIS,ioos:station:WAVCIS:CSI03:3,2009-04-08T00:00:00Z,29.4412,-92.0613,10.0,0.0,289.0,,'11111222,11111222,99999999' 
WAVCIS,ioos:station:WAVCIS:CSI03:3,2009-04-08T01:00:00Z,29.4412,-92.0613,10.0,0.0,293.0,,'11111222,11111222,99999999' 
WAVCIS,ioos:station:WAVCIS:CSI03:3,2009-04-08T02:00:00Z,29.4412,-92.0613,10.0,0.0,287.0,,'11111222,11111222,99999999' 
WAVCIS,ioos:station:WAVCIS:CSI03:3,2009-04-08T03:00:00Z,29.4412,-92.0613,10.0,0.0,309.0,,'11111222,11111222,99999999' 
WAVCIS,ioos:station:WAVCIS:CSI03:3,2009-04-08T04:00:00Z,29.4412,-92.0613,10.0,0.0,279.0,,'11111222,11111222,99999999' 
WAVCIS,ioos:station:WAVCIS:CSI03:3,2009-04-08T05:00:00Z,29.4412,-92.0613,10.0,0.0,271.0,,'11111222,11111222,99999999' 
WAVCIS,ioos:station:WAVCIS:CSI03:3,2009-04-08T06:00:00Z,29.4412,-92.0613,10.0,0.0,271.0,,'11111222,11111222,99999999' 
WAVCIS,ioos:station:WAVCIS:CSI03:3,2009-04-08T07:00:00Z,29.4412,-92.0613,10.0,0.0,271.0,,'11111222,11111222,99999999' 
WAVCIS,ioos:station:WAVCIS:CSI03:3,2009-04-08T08:00:00Z,29.4412,-92.0613,10.0,0.0,271.0,,'11111222,11111222,99999999' 
WAVCIS,ioos:station:WAVCIS:CSI03:3,2009-04-08T09:00:00Z,29.4412,-92.0613,10.0,0.0,271.0,,'11111222,11111222,99999999' 
WAVCIS,ioos:station:WAVCIS:CSI03:3,2009-04-08T10:00:00Z,29.4412,-92.0613,10.0,0.0,265.0,,'11111222,11111222,99999999' 
WAVCIS,ioos:station:WAVCIS:CSI03:3,2009-04-08T11:00:00Z,29.4412,-92.0613,10.0,0.0,264.0,,'11111222,11111222,99999999' 
WAVCIS,ioos:station:WAVCIS:CSI03:3,2009-04-08T12:00:00Z,29.4412,-92.0613,10.0,0.0,256.0,,'11111222,11111222,99999999' 
WAVCIS,ioos:station:WAVCIS:CSI03:3,2009-04-08T13:00:00Z,29.4412,-92.0613,10.0,0.0,259.0,,'11111222,11111222,99999999' 
WAVCIS,ioos:station:WAVCIS:CSI03:3,2009-04-08T14:00:00Z,29.4412,-92.0613,10.0,0.0,257.0,,'11111222,11111222,99999999' 
WAVCIS,ioos:station:WAVCIS:CSI03:3,2009-04-08T15:00:00Z,29.4412,-92.0613,10.0,0.0,224.0,,'11111222,11111222,99999999' 
WAVCIS,ioos:station:WAVCIS:CSI03:3,2009-04-08T16:00:00Z,29.4412,-92.0613,10.0,0.0,256.0,,'11111222,11111222,99999999' 
WAVCIS,ioos:station:WAVCIS:CSI03:3,2009-04-08T17:00:00Z,29.4412,-92.0613,10.0,0.0,263.0,,'11111222,11111222,99999999' 
WAVCIS,ioos:station:WAVCIS:CSI03:3,2009-04-08T18:00:00Z,29.4412,-92.0613,10.0,0.001,249.0,,'11111222,11111222,99999999' 
WAVCIS,ioos:station:WAVCIS:CSI03:3,2009-04-08T19:00:00Z,29.4412,-92.0613,10.0,0.0,258.0,,'11111222,11111222,99999999' 
WAVCIS,ioos:station:WAVCIS:CSI03:3,2009-04-08T20:00:00Z,29.4412,-92.0613,10.0,0.001,249.0,,'11111222,11111222,99999999' 
WAVCIS,ioos:station:WAVCIS:CSI03:3,2009-04-08T21:00:00Z,29.4412,-92.0613,10.0,0.001,239.0,,'11111222,11111222,99999999' 
WAVCIS,ioos:station:WAVCIS:CSI03:3,2009-04-08T22:00:00Z,29.4412,-92.0613,10.0,0.001,254.0,,'11111222,11111222,99999999' 
WAVCIS,ioos:station:WAVCIS:CSI03:3,2009-04-08T23:00:00Z,29.4412,-92.0613,10.0,0.0,242.0,,'11111222,11111222,99999999' 
WAVCIS,ioos:station:WAVCIS:CSI03:3,2009-04-09T00:00:00Z,29.4412,-92.0613,10.0,0.0,245.0,,'11111222,11111222,99999999' 
WAVCIS,ioos:station:WAVCIS:CSI03:3,2009-04-09T01:00:00Z,29.4412,-92.0613,10.0,0.0,251.0,,'11111222,11111222,99999999' 
WAVCIS,ioos:station:WAVCIS:CSI03:3,2009-04-09T02:00:00Z,29.4412,-92.0613,10.0,0.0,268.0,,'11111222,11111222,99999999' 
WAVCIS,ioos:station:WAVCIS:CSI03:3,2009-04-09T03:00:00Z,29.4412,-92.0613,10.0,0.0,234.0,,'11111222,11111222,99999999' 
WAVCIS,ioos:station:WAVCIS:CSI03:3,2009-04-09T04:00:00Z,29.4412,-92.0613,10.0,0.083,255.0,,'11111222,11111222,99999999' 
WAVCIS,ioos:station:WAVCIS:CSI03:3,2009-04-09T05:00:00Z,29.4412,-92.0613,10.0,0.098,233.0,,'11111222,11111222,99999999' 